Date,TemperatureHighF,TemperatureAvgF,TemperatureLowF,DewpointHighF,DewpointAvgF,DewpointLowF,HumidityHigh,HumidityAvg,HumidityLow,PressureMaxIn,PressureMinIn,WindSpeedMaxMPH,WindSpeedAvgMPH,GustSpeedMaxMPH,PrecipitationSumIn
2013-10-1,65.6,52.4,37.3,41.0,32.0,25.0,76,49,28,29.90,29.77,7,2,10,0.00
2013-10-2,59.1,51.9,44.9,42.0,36.2,31.0,81,57,35,30.03,29.89,18,3,19,0.00
2013-10-3,49.0,41.5,36.1,42.0,38.6,35.0,94,89,66,30.31,29.91,19,8,24,0.69
2013-10-4,45.2,37.5,28.4,35.0,31.2,27.0,95,80,49,30.50,30.32,15,5,21,0.03
2013-10-5,57.2,41.0,25.6,39.0,32.2,24.0,97,74,47,30.40,30.17,15,3,18,0.00
2013-10-6,69.1,51.6,41.7,41.0,36.8,32.0,86,60,32,30.20,29.96,12,4,16,0.00
2013-10-7,66.3,49.7,33.3,47.0,40.6,32.0,96,74,43,29.96,29.61,7,1,10,0.00
2013-10-8,61.7,48.9,39.3,43.0,38.8,36.0,93,71,40,29.91,29.64,7,1,14,0.00
2013-10-9,55.2,45.1,33.1,44.0,37.7,32.0,96,77,54,30.07,29.85,6,2,13,0.00
2013-10-10,56.1,45.6,34.8,46.0,40.8,34.0,97,84,61,29.85,29.65,5,1,9,0.06
2013-10-11,52.3,45.3,36.7,43.0,37.9,33.0,90,76,56,30.03,29.73,20,5,31,0.09
2013-10-12,54.9,42.3,29.5,39.0,34.1,29.0,96,75,45,30.15,30.04,8,1,13,0.00
2013-10-13,48.9,40.6,30.3,43.0,36.0,28.0,95,84,63,30.18,30.10,12,2,16,0.41
2013-10-14,48.4,41.7,37.3,39.0,34.5,26.0,93,78,42,30.39,30.16,18,7,24,0.21
2013-10-15,52.7,41.7,31.9,37.0,32.7,29.0,93,73,45,30.39,30.12,8,2,15,0.00
2013-10-16,56.5,40.1,29.2,39.0,32.3,27.0,92,77,35,30.20,29.98,18,4,30,0.04
2013-10-17,46.4,39.6,32.2,37.0,32.4,26.0,97,78,45,30.22,30.12,10,3,22,0.04
2013-10-18,55.8,44.9,33.7,35.0,31.9,26.0,87,63,37,30.23,29.93,18,5,23,0.00
2013-10-19,62.9,50.7,40.7,37.0,33.0,30.0,67,52,31,29.93,29.79,18,6,23,0.00
2013-10-20,53.0,47.0,42.0,40.0,37.3,34.0,89,70,51,30.02,29.86,20,5,27,0.00
2013-10-21,60.0,50.3,42.1,42.0,39.3,37.0,89,67,47,30.03,29.96,9,3,16,0.00
2013-10-22,65.8,49.7,39.4,42.0,39.7,36.0,89,71,38,30.09,29.96,5,1,7,0.00
2013-10-23,57.2,47.1,40.9,42.0,40.2,38.0,91,78,56,30.24,30.03,14,2,17,0.00
2013-10-24,59.1,45.7,35.2,43.0,38.8,34.0,96,79,48,30.27,30.08,6,1,10,0.00
2013-10-25,67.5,46.6,33.3,43.0,35.3,32.0,97,71,27,30.26,30.06,15,3,20,0.00
2013-10-26,69.6,45.7,28.3,42.0,34.3,27.0,97,70,29,30.26,29.93,10,2,14,0.00
2013-10-27,59.6,44.3,30.1,39.0,33.2,29.0,94,68,35,30.15,29.80,26,5,28,0.00
2013-10-28,37.4,29.6,26.1,30.0,26.7,24.0,94,89,76,30.27,30.17,20,8,26,0.00
2013-10-29,32.2,29.2,26.6,29.0,27.0,25.0,94,91,86,30.25,29.99,5,1,6,0.01
2013-10-30,50.7,34.5,22.9,37.0,29.7,22.0,97,84,54,29.98,29.80,10,2,14,0.02
2013-10-31,55.0,44.4,34.4,37.0,32.3,29.0,82,64,44,29.90,29.69,23,6,30,0.00